Preview of NWS' New Version of Forecast
This preview is not operational and should not be used for support decisions.

Regional Weather Roundup (RWR)

Issued by National Weather Service (NWS)

                            
000
ASCA42 TJSJ 151910
RWRPR 
PUERTO RICO/U.S. VIRGIN ISLANDS HOURLY WEATHER ROUNDUP
NATIONAL WEATHER SERVICE SAN JUAN PR
300 PM AST FRI FEB 15 2019

PRZ001>002-007>008-010-152000-
PUERTO RICO
  
CITY           SKY/WX    TMP DP  RH WIND       PRES   REMARKS
SAN JUAN LMM   MOSUNNY   84  70  61 S8G18     29.96F                  
AGUADILLA      PTSUNNY   81  72  74 N6        29.98F                  
CEIBA          CLOUDY    79  70  73 S16       30.00F                  
$$

VIZ001>002-152000-
U.S. VIRGIN ISLANDS
  
CITY           SKY/WX    TMP DP  RH WIND       PRES   REMARKS
CHARLOTTE AMA  MOSUNNY   82  72  69 SE15      29.98F                  
CHRISTIANSTED  MOSUNNY   84  72  65 SE9       30.00F                  
$$

HOURLY WEATHER ROUNDUP FOR THE NEWS MEDIA
  
CITY           SKY/WX    TMP DP  RH WIND       PRES   REMARKS
ORLANDO        FAIR      78  50  37 VRB7      29.96F                  
NEW YORK       PTSUNNY   50  44  80 S22G30    29.67F                  
NEWARK         FAIR      60  39  45 S16       29.64F                  
CHICAGO        FAIR      16   8  71 W12G25    29.94R WCI   3          
HARTFORD       CLOUDY    51  48  89 S23G36    29.73F                  
BOSTON         CLOUDY    49  45  86 S15       29.70                   
DALLAS         CLOUDY    72  53  51 CALM      29.67F                  
PHILADELPHIA   FAIR      62  38  40 SW20G25   29.65F                  
LOS ANGELES    PTSUNNY   58  48  69 W8        30.14R                  
WASHINGTON DC  PTSUNNY   63  38  39 S18G26    29.65F